Wetbulb
35.46 35.70 36.69 35.92 36.73 37.60 36.23 36.31 31.36 34.06 35.03 38.73 40.95 43.10 43.98 44.41 43.95 42.78 41.10 41.50 41.40 37.26 35.13 35.01 35.19 34.88 35.05 35.14 37.25 37.11 35.68 32.56 31.22 31.24 31.27 31.15 30.08 29.48 28.67 27.88 27.95 28.37 25.90 25.34
29.83 34.30 34.41 31.84 35.35 36.40 36.66 37.14 36.39 35.97 34.64 41.90 43.82 44.97 44.30 44.81 44.81 43.72 40.97 41.60 41.98 37.87 35.51 35.32 35.36 34.41 35.81 36.15 34.93 34.17 32.07 31.08 31.27 30.44 30.05 29.02 28.50 27.79 26.96 26.05 25.76 26.14 24.73 24.33
25.24 31.63 31.01 26.49 31.80 33.49 35.90 37.77 37.09 32.44 36.92 41.10 40.62 41.88 42.65 44.20 44.68 42.12 41.77 41.71 41.19 36.27 35.39 35.07 34.76 35.31 35.37 34.25 33.87 32.23 31.08 30.54 30.04 29.16 27.86 27.57 27.94 26.80 25.63 24.61 24.61 23.35 23.70 23.43
26.42 28.46 19.25 31.71 37.91 37.54 36.21 37.32 38.74 39.36 39.47 40.14 40.49 42.75 43.94 43.71 43.28 42.38 41.75 41.65 39.35 36.25 35.10 34.29 34.62 35.68 34.90 33.42 31.97 30.63 28.94 29.20 29.59 28.25 26.56 26.43 26.05 24.11 22.87 23.81 19.49 19.51 20.86 21.30
21.62 22.86 28.25 31.44 35.60 34.09 32.86 33.84 38.70 37.54 38.74 40.21 40.76 42.43 40.28 43.17 43.15 42.66 41.71 39.18 36.41 35.79 34.21 33.95 33.77 35.71 33.21 30.87 29.85 28.59 26.97 26.82 27.21 26.50 24.68 24.07 17.41 17.09 18.84 23.34 20.82 20.41 20.56 19.15
22.98 20.20 19.42 29.06 37.14 40.45 38.87 26.52 37.38 38.61 38.26 38.52 38.30 30.24 32.71 37.57 39.04 36.07 35.99 35.12 33.16 33.19 33.82 33.66 33.92 33.89 31.72 29.62 28.23 26.53 26.43 26.65 26.85 25.90 21.11 14.04 14.67 16.39 19.13 20.98 24.01 22.15 19.88 17.51
24.54 23.71 27.44 34.19 37.99 39.77 26.06 25.97 38.37 39.66 38.74 38.04 34.03 34.74 35.01 34.60 33.65 33.92 33.95 33.42 33.23 33.29 32.42 32.28 32.79 30.57 28.04 26.85 25.97 27.67 28.46 27.60 26.76 26.14 24.62 23.11 21.03 19.25 18.57 18.81 24.35 21.35 18.06 16.93
26.94 24.29 21.32 38.23 38.05 31.33 34.39 37.92 37.69 38.79 37.22 34.27 33.10 32.95 32.36 32.60 32.13 32.48 32.20 32.40 32.16 31.62 31.75 33.20 31.74 29.34 25.63 25.13 27.22 27.36 27.08 26.09 24.19 24.87 26.84 26.52 22.34 22.95 24.40 21.24 20.71 19.95 16.50 14.70
29.53 27.16 34.55 37.79 36.52 38.44 39.57 38.55 38.32 37.87 36.25 34.07 31.81 31.47 31.68 30.98 31.11 31.11 31.07 31.05 31.56 31.30 31.16 31.78 30.78 28.91 26.58 27.52 27.03 26.29 24.87 19.07 23.13 26.09 26.06 25.17 23.60 21.49 20.98 20.84 20.12 18.46 17.12 12.03
28.78 32.16 34.88 37.00 39.23 40.44 40.25 39.21 39.62 39.34 34.67 33.56 31.86 31.67 30.77 30.74 30.39 30.15 30.28 30.10 31.01 30.80 30.10 29.72 30.01 29.14 28.47 28.09 27.75 26.40 24.81 24.83 24.80 24.25 23.37 21.51 21.21 20.49 18.98 18.09 18.47 18.50 16.00 11.86
31.20 34.03 36.72 37.66 39.25 39.89 39.99 39.29 38.80 36.97 34.59 33.28 32.23 31.13 30.67 29.75 29.77 29.75 29.94 30.15 31.13 29.96 29.41 29.29 29.97 28.84 28.94 28.88 27.75 25.89 25.67 24.80 23.03 22.21 21.21 20.58 19.34 17.48 18.81 16.01 18.40 16.78 13.51 12.35
28.36 36.82 36.12 36.35 40.57 41.16 39.44 37.86 36.73 34.04 32.46 33.47 32.59 30.72 30.58 29.64 29.91 29.79 29.19 30.19 29.85 29.32 29.19 29.03 29.28 28.36 28.85 29.34 28.68 26.93 24.36 23.45 22.56 20.73 20.20 19.22 19.16 18.00 22.32 21.94 22.28 21.72 20.94 15.75
34.28 40.51 39.12 39.13 40.22 40.47 39.58 39.54 37.06 34.42 33.34 31.45 32.20 31.26 30.66 29.35 29.92 30.46 30.03 30.31 28.32 28.00 25.83 24.14 24.28 23.56 26.59 29.12 28.24 26.34 23.83 24.39 24.00 22.54 19.57 18.12 18.04 17.74 13.78 18.07 22.02 21.95 21.30 21.28
39.11 38.63 34.52 36.32 33.49 38.12 39.01 38.80 37.64 34.86 33.63 31.93 31.64 31.52 30.43 29.64 30.37 30.14 30.04 28.67 26.36 24.78 23.83 23.37 23.16 22.07 22.85 25.20 24.03 22.01 22.69 23.52 22.00 20.81 19.95 18.82 16.25 16.96 14.63 14.09 11.64 8.74 17.86 17.62
38.87 39.31 37.31 38.05 37.39 36.47 37.22 36.21 33.81 32.80 32.28 31.67 31.45 29.96 29.69 29.13 29.55 30.14 28.20 26.86 25.78 24.03 22.52 22.46 21.66 20.82 21.20 24.27 23.32 22.68 22.87 20.59 18.93 16.92 15.68 14.51 13.85 13.81 15.34 15.45 14.43 12.45 8.12 8.71
38.90 37.80 36.96 35.67 34.85 34.87 35.34 33.81 31.40 31.33 31.40 30.33 28.90 28.86 29.53 29.98 29.81 28.22 26.80 25.72 23.91 21.63 22.19 21.04 20.91 20.58 22.24 22.68 21.85 21.92 21.54 19.46 19.29 19.10 17.53 17.38 17.20 16.51 16.06 15.10 13.83 9.08 5.14 4.24
33.07 32.09 33.19 32.35 31.39 31.40 31.91 32.75 32.76 31.84 30.94 29.70 29.13 29.31 28.52 28.90 27.98 26.45 25.91 25.80 23.33 21.89 21.91 21.16 20.10 20.70 21.10 21.92 22.97 21.91 20.87 21.29 18.99 20.05 19.13 17.81 16.28 15.45 15.09 13.69 12.90 9.51 4.39 3.80
36.11 35.68 35.12 33.13 30.95 30.11 30.15 30.90 30.62 31.04 30.58 30.29 29.67 28.12 27.03 26.58 24.56 23.70 23.18 22.02 21.11 20.42 20.41 20.83 21.10 21.24 21.18 21.18 22.26 21.50 20.11 20.37 19.97 18.48 17.99 15.97 16.55 16.59 14.59 13.67 13.57 11.41 9.18 6.26
35.40 34.16 33.42 33.39 31.68 30.17 29.37 28.85 28.98 29.38 29.31 28.94 28.28 26.09 26.16 24.12 22.89 22.13 21.80 20.69 19.02 17.78 18.20 20.10 22.94 20.98 21.72 21.94 23.37 21.50 20.27 18.98 18.20 16.73 14.92 11.68 13.28 13.65 10.98 10.11 9.75 8.33 9.74 8.69
30.62 30.98 30.59 30.00 30.23 29.58 27.42 25.75 27.29 26.42 26.71 25.87 25.12 23.87 21.98 22.25 22.41 21.56 21.53 20.09 20.23 19.84 19.55 20.60 22.18 22.46 22.06 21.56 21.93 20.49 19.17 16.88 16.32 13.39 12.28 13.42 10.31 5.29 5.65 8.46 9.23 4.41 1.64 1.90
28.24 27.44 26.36 26.67 27.93 28.29 25.11 20.18 23.83 20.54 19.59 24.87 23.25 22.17 21.65 21.68 22.23 21.88 20.85 19.89 19.75 19.95 20.68 21.07 21.55 20.74 19.81 18.49 20.02 18.32 16.47 14.32 12.30 11.35 10.88 9.02 9.22 11.20 7.32 3.93 5.07 4.47 1.80 -1.69
27.69 25.73 20.73 24.55 27.79 26.14 24.13 18.94 19.84 19.12 20.69 21.70 21.75 21.28 20.52 19.99 21.07 21.81 22.60 20.39 21.16 20.48 20.56 20.97 21.22 19.07 18.05 18.50 20.00 18.45 16.96 15.92 14.14 13.23 12.39 10.71 9.32 8.50 7.57 6.13 5.17 2.10 -2.23 -6.66
29.07 28.73 28.67 27.84 27.37 27.07 26.08 20.21 14.51 17.69 16.99 17.32 18.30 19.28 19.52 20.14 20.85 19.95 18.52 22.12 21.74 20.46 20.66 21.10 20.12 17.17 16.36 18.82 17.47 15.93 15.12 14.00 12.67 12.32 10.76 10.17 8.95 8.05 6.54 4.66 -0.17 -2.16 -3.87 -7.33
27.94 27.93 27.37 27.48 27.10 26.26 24.84 24.98 24.13 19.92 15.75 16.23 14.96 16.49 19.84 19.53 20.52 24.60 22.74 22.37 21.43 21.15 19.62 18.68 18.38 17.86 18.69 17.53 16.50 15.40 13.97 12.88 12.24 11.28 9.76 8.54 5.69 6.20 2.21 -2.85 -5.12 -5.07 -9.24 -9.25
27.54 27.40 27.08 26.28 26.19 25.69 26.02 26.01 25.04 23.25 21.38 20.72 20.40 20.78 21.18 22.40 20.40 21.74 22.03 21.88 21.04 18.58 18.32 16.48 17.19 18.55 18.18 16.69 15.25 12.63 11.91 11.05 9.79 7.10 6.86 7.18 4.58 2.22 3.12 0.42 -5.15 -8.14 -10.40 -11.13
27.67 27.05 27.22 27.80 27.56 26.79 26.33 26.02 24.12 23.08 22.77 19.45 19.98 20.08 18.86 20.33 22.27 21.78 21.27 21.25 18.49 17.92 15.29 14.69 15.39 16.20 15.47 14.20 12.17 10.43 9.08 7.93 10.28 8.60 6.97 6.03 4.85 4.16 1.55 0.73 -6.90 -9.89 -11.73 -12.63
28.68 26.73 27.38 28.40 28.68 27.45 26.58 26.33 23.70 23.20 23.61 21.85 20.52 21.56 21.65 21.23 21.00 19.89 19.81 19.81 17.75 15.81 13.75 14.42 14.58 16.63 15.68 13.07 11.02 11.01 8.10 7.88 7.03 7.04 5.97 4.95 3.77 2.81 1.75 -1.76 -5.83 -8.76 -9.98 -11.64
MSLP
1007.56 1007.00 1006.85 1007.18 1006.77 1007.11 1007.94 1008.53 1009.07 1009.15 1009.03 1008.68 1008.58 1008.89 1009.26 1010.56 1012.37 1013.09 1013.71 1015.08 1015.81 1017.25 1018.40 1019.48 1020.35 1021.15 1022.08 1022.60 1022.92 1023.26 1024.19 1024.63 1024.89 1025.10 1025.09 1025.41 1025.78 1025.85 1026.16 1026.32 1026.35 1026.01 1026.31 1026.24
1009.81 1008.60 1008.18 1008.73 1008.61 1008.36 1008.55 1008.64 1009.20 1009.24 1008.93 1008.54 1008.30 1008.57 1008.26 1008.70 1009.95 1010.96 1012.61 1013.76 1014.55 1016.28 1017.72 1018.93 1019.82 1020.78 1021.60 1022.39 1022.71 1023.65 1024.35 1024.96 1025.28 1025.53 1025.69 1026.11 1026.31 1026.49 1026.88 1027.12 1026.91 1026.84 1026.93 1026.78
1010.57 1009.05 1008.13 1008.68 1008.79 1008.59 1008.43 1008.44 1008.45 1008.41 1008.11 1007.60 1007.55 1008.04 1007.58 1007.32 1007.82 1009.75 1011.26 1012.41 1014.00 1015.62 1017.12 1018.45 1019.64 1020.33 1021.34 1022.21 1022.79 1024.11 1024.73 1025.23 1025.73 1026.02 1026.35 1026.70 1026.86 1027.19 1027.58 1027.64 1027.60 1027.65 1027.57 1027.40
1011.47 1010.79 1010.31 1008.93 1007.61 1007.30 1007.15 1007.14 1007.53 1007.37 1007.49 1007.45 1006.99 1007.42 1007.57 1007.15 1007.89 1009.41 1010.79 1012.33 1014.11 1015.55 1017.12 1018.47 1019.39 1020.45 1021.27 1022.27 1023.41 1024.41 1025.05 1025.57 1026.08 1026.46 1026.85 1027.15 1027.44 1027.76 1027.92 1028.05 1028.13 1028.20 1028.31 1028.08
1012.83 1011.94 1010.44 1009.08 1007.66 1007.20 1007.24 1007.02 1007.01 1007.47 1007.61 1007.66 1007.65 1008.26 1008.70 1008.57 1008.56 1009.27 1010.78 1012.65 1014.39 1015.97 1017.19 1018.39 1019.54 1020.47 1021.50 1022.57 1023.83 1024.85 1025.46 1026.11 1026.66 1026.88 1027.22 1027.56 1028.02 1028.04 1028.12 1028.36 1028.59 1028.75 1028.97 1028.89
1012.73 1012.22 1010.69 1008.18 1007.28 1006.88 1007.27 1007.38 1006.95 1007.20 1007.60 1007.98 1008.14 1009.60 1010.52 1010.43 1009.81 1010.96 1012.11 1013.69 1014.99 1016.53 1017.70 1018.68 1020.03 1020.73 1021.60 1022.95 1023.89 1024.82 1025.80 1026.56 1026.94 1027.16 1027.51 1027.91 1028.01 1028.13 1028.15 1028.41 1028.87 1029.21 1029.52 1029.56
1011.94 1011.72 1010.45 1008.55 1007.88 1007.44 1007.96 1008.33 1007.23 1007.49 1008.18 1008.84 1010.25 1011.69 1011.94 1012.04 1012.48 1012.98 1013.83 1015.05 1016.09 1017.23 1018.28 1019.53 1020.21 1021.01 1022.49 1023.35 1024.13 1024.92 1025.83 1026.65 1027.03 1027.31 1027.55 1027.81 1028.02 1028.16 1028.26 1028.45 1028.99 1029.57 1029.99 1030.33
1011.61 1011.20 1010.21 1008.26 1007.91 1008.05 1008.12 1007.87 1007.76 1008.05 1009.24 1010.34 1011.50 1012.59 1013.23 1013.70 1014.18 1014.81 1015.30 1016.40 1017.06 1017.86 1019.11 1020.19 1020.82 1021.55 1022.91 1023.71 1024.41 1025.10 1025.96 1026.64 1027.05 1027.33 1027.57 1027.90 1028.06 1028.22 1028.38 1028.72 1029.26 1029.82 1030.39 1030.79
1010.72 1009.72 1008.59 1007.87 1007.81 1007.36 1007.37 1007.75 1008.15 1009.04 1010.26 1011.29 1012.60 1013.55 1014.09 1014.63 1015.37 1016.07 1016.56 1017.09 1017.74 1018.42 1019.51 1020.55 1021.34 1022.05 1022.74 1023.80 1024.65 1025.43 1026.17 1026.82 1027.03 1027.33 1027.66 1028.10 1028.41 1028.68 1028.91 1029.16 1029.65 1030.21 1030.73 1031.21
1010.04 1008.82 1008.19 1007.51 1007.25 1006.81 1006.98 1007.56 1008.17 1009.07 1010.60 1011.74 1012.91 1014.04 1014.79 1015.46 1016.08 1016.61 1017.15 1017.63 1018.18 1018.88 1019.73 1020.67 1021.49 1022.15 1022.82 1023.86 1024.68 1025.47 1026.18 1026.69 1027.02 1027.45 1028.02 1028.54 1028.89 1029.19 1029.44 1029.80 1030.12 1030.57 1031.07 1031.48
1009.74 1009.19 1008.11 1007.53 1007.44 1007.79 1007.80 1007.93 1008.78 1009.94 1010.80 1012.07 1013.26 1014.25 1014.92 1015.59 1016.22 1016.84 1017.29 1017.94 1018.59 1019.08 1019.83 1020.56 1021.34 1022.05 1022.76 1023.65 1024.50 1025.32 1026.01 1026.57 1027.18 1027.73 1028.37 1028.94 1029.41 1029.72 1029.86 1030.13 1030.34 1030.73 1031.18 1031.34
1008.91 1008.51 1008.32 1007.81 1007.61 1007.77 1008.25 1008.53 1009.62 1010.62 1012.01 1012.69 1013.45 1014.16 1014.93 1015.76 1016.30 1016.80 1017.42 1018.01 1018.80 1019.39 1019.81 1020.47 1021.14 1021.90 1022.44 1023.24 1024.08 1024.78 1025.62 1026.33 1026.96 1027.70 1028.47 1029.09 1029.51 1030.00 1030.04 1030.14 1030.30 1030.56 1030.78 1031.09
1008.13 1007.75 1007.65 1007.62 1007.59 1007.83 1008.12 1008.59 1008.98 1010.48 1011.52 1012.60 1013.66 1014.38 1015.05 1015.80 1016.48 1017.01 1017.62 1018.27 1018.93 1019.51 1019.97 1020.69 1021.43 1022.05 1022.30 1022.87 1023.63 1024.44 1025.30 1026.02 1026.73 1027.56 1028.40 1029.11 1029.63 1029.93 1030.30 1030.40 1030.40 1030.61 1030.74 1030.62
1006.81 1007.11 1007.46 1007.48 1007.54 1007.73 1008.00 1008.44 1009.53 1010.77 1011.67 1012.63 1013.60 1014.65 1015.31 1016.01 1016.69 1017.28 1017.91 1018.58 1019.24 1019.89 1020.65 1021.26 1021.79 1022.62 1022.95 1023.08 1023.82 1024.71 1025.43 1026.07 1026.80 1027.59 1028.20 1028.89 1029.48 1029.87 1030.24 1030.49 1030.89 1031.32 1031.11 1031.24
1006.52 1006.85 1007.19 1007.31 1007.50 1008.09 1008.43 1009.06 1010.09 1011.17 1012.09 1013.04 1014.14 1014.92 1015.60 1016.29 1016.89 1017.53 1018.32 1018.98 1019.70 1020.54 1021.45 1021.82 1022.55 1023.61 1023.70 1023.82 1024.42 1025.20 1025.87 1026.69 1027.26 1027.84 1028.29 1028.70 1029.08 1029.49 1029.89 1030.40 1031.19 1031.84 1032.14 1032.18
1006.40 1006.77 1007.34 1007.71 1008.23 1008.73 1009.22 1009.90 1010.72 1011.69 1012.55 1013.51 1014.47 1015.32 1016.02 1016.70 1017.33 1018.00 1018.83 1019.46 1020.04 1021.09 1021.85 1022.33 1023.40 1024.20 1024.20 1024.47 1025.08 1025.69 1026.31 1026.89 1027.50 1028.09 1028.60 1029.01 1029.32 1029.81 1030.17 1030.58 1031.38 1032.04 1032.29 1032.61
1006.73 1007.23 1007.76 1008.38 1009.04 1009.55 1010.04 1010.57 1011.27 1012.04 1012.91 1013.83 1014.72 1015.53 1016.36 1017.18 1017.89 1018.69 1019.43 1020.10 1020.83 1021.64 1022.32 1022.92 1023.89 1024.33 1024.52 1024.94 1025.41 1026.01 1026.59 1027.21 1027.70 1028.25 1028.68 1029.03 1029.52 1029.99 1030.35 1030.77 1031.48 1032.07 1032.57 1032.55
1007.11 1007.60 1008.05 1008.70 1009.56 1010.26 1010.84 1011.32 1011.90 1012.62 1013.37 1014.13 1015.00 1015.88 1016.72 1017.54 1018.34 1019.25 1020.01 1020.80 1021.63 1022.45 1023.04 1023.55 1024.02 1024.36 1024.82 1025.32 1025.78 1026.31 1026.82 1027.32 1027.86 1028.40 1028.83 1029.28 1029.70 1030.10 1030.52 1030.96 1031.47 1032.09 1032.59 1032.83
1007.98 1008.57 1008.94 1009.45 1010.11 1010.94 1011.65 1012.27 1012.78 1013.34 1014.01 1014.67 1015.52 1016.38 1017.19 1018.07 1018.93 1019.80 1020.63 1021.41 1022.17 1022.88 1023.65 1023.89 1024.21 1024.60 1025.05 1025.41 1025.89 1026.39 1026.96 1027.48 1028.05 1028.69 1029.19 1029.61 1030.12 1030.55 1030.98 1031.35 1031.79 1032.20 1032.67 1033.09
1009.44 1009.69 1010.08 1010.70 1011.12 1011.77 1012.71 1013.26 1013.75 1014.38 1014.84 1015.38 1016.24 1017.10 1018.01 1018.79 1019.42 1020.21 1020.92 1021.69 1022.29 1022.88 1023.63 1024.01 1024.37 1024.77 1025.12 1025.29 1025.75 1026.37 1027.00 1027.67 1028.29 1028.98 1029.44 1029.94 1030.53 1031.16 1031.34 1031.62 1032.03 1032.49 1032.91 1033.31
1010.83 1011.14 1011.48 1011.83 1012.46 1013.03 1013.60 1014.19 1014.66 1015.44 1015.90 1016.10 1016.78 1017.67 1018.39 1019.18 1019.78 1020.38 1021.12 1021.81 1022.56 1023.11 1023.67 1024.19 1024.52 1024.88 1025.27 1025.61 1026.04 1026.58 1027.20 1027.92 1028.58 1029.17 1029.68 1030.21 1030.63 1031.07 1031.59 1031.92 1032.28 1032.70 1033.22 1033.65
1011.71 1012.12 1012.53 1012.66 1013.27 1014.04 1014.68 1015.19 1015.57 1016.20 1016.71 1017.16 1017.62 1018.18 1018.86 1019.58 1020.06 1020.58 1021.00 1021.56 1022.50 1023.11 1023.70 1024.21 1024.57 1025.04 1025.50 1025.89 1026.31 1026.85 1027.46 1028.05 1028.63 1029.13 1029.63 1030.07 1030.55 1031.10 1031.58 1031.99 1032.56 1032.98 1033.44 1033.91
1012.12 1012.45 1012.90 1013.34 1013.84 1014.49 1015.14 1015.81 1016.33 1016.62 1017.21 1017.67 1018.09 1018.55 1018.94 1019.39 1019.94 1020.56 1021.28 1021.91 1022.47 1023.15 1023.68 1024.09 1024.50 1025.09 1025.63 1026.09 1026.55 1027.07 1027.64 1028.18 1028.67 1029.12 1029.58 1030.01 1030.48 1031.01 1031.59 1032.17 1032.64 1033.17 1033.72 1034.16
1012.55 1012.92 1013.31 1013.74 1014.20 1014.79 1015.37 1015.98 1016.50 1017.02 1017.43 1017.97 1018.36 1018.73 1019.14 1019.73 1020.29 1020.48 1020.95 1021.73 1022.48 1023.14 1023.65 1024.11 1024.56 1025.15 1025.73 1026.31 1026.84 1027.38 1027.87 1028.33 1028.78 1029.23 1029.69 1030.18 1030.67 1031.19 1031.74 1032.27 1032.87 1033.42 1033.89 1034.30
1012.79 1013.16 1013.58 1013.96 1014.38 1014.83 1015.34 1015.90 1016.53 1017.18 1017.75 1018.27 1018.70 1019.05 1019.31 1019.62 1019.94 1020.60 1021.16 1021.88 1022.49 1023.08 1023.73 1024.25 1024.71 1025.28 1025.88 1026.50 1027.04 1027.57 1028.07 1028.50 1028.93 1029.37 1029.77 1030.26 1030.74 1031.21 1031.73 1032.31 1033.00 1033.58 1033.86 1034.03
1012.84 1013.18 1013.56 1013.85 1014.13 1014.66 1015.28 1015.87 1016.40 1017.05 1017.57 1018.26 1018.80 1019.17 1019.47 1019.64 1020.07 1020.76 1021.39 1021.92 1022.71 1023.30 1023.99 1024.57 1025.05 1025.46 1026.01 1026.60 1027.16 1027.71 1028.25 1028.70 1029.04 1029.41 1029.79 1030.27 1030.72 1031.17 1031.60 1032.05 1032.95 1033.34 1033.65 1033.91
1012.78 1013.11 1013.40 1013.66 1013.98 1014.46 1014.98 1015.58 1016.18 1016.71 1017.26 1017.83 1018.40 1018.96 1019.37 1019.73 1020.20 1020.79 1021.43 1022.10 1022.83 1023.51 1024.22 1024.76 1025.19 1025.60 1026.13 1026.69 1027.23 1027.76 1028.44 1028.76 1029.09 1029.43 1029.81 1030.20 1030.59 1030.97 1031.42 1032.00 1032.51 1032.89 1033.21 1033.47
Wind_Speed
4 10 10 7 9 6 2 3 5 4 6 5 7 11 17 19 17 16 16 16 15 15 14 13 12 11 8 6 4 8 7 6 6 7 7 8 8 9 9 10 10 11 11 11
7 7 7 4 10 11 8 9 7 8 15 8 12 10 14 16 24 20 21 21 19 18 18 15 13 11 10 8 6 8 7 7 8 8 8 7 8 9 9 8 9 10 10 11
5 11 12 4 11 11 11 12 8 10 13 11 13 17 12 17 16 21 23 22 19 19 17 15 13 12 8 10 10 9 9 8 7 8 7 6 7 8 6 7 9 10 10 10
5 7 6 7 12 17 17 17 14 15 10 10 9 3 5 0 17 19 18 18 16 17 16 13 13 11 10 11 11 10 8 8 6 8 7 6 6 4 4 5 4 4 9 9
1 4 7 11 10 4 9 10 1 2 8 7 5 5 5 7 3 16 18 13 15 15 17 14 13 12 12 12 11 10 8 7 6 7 6 6 4 4 3 5 5 7 8 10
3 3 5 5 4 5 3 6 6 8 5 3 5 2 4 7 9 14 17 17 19 18 16 16 12 8 13 12 12 10 9 7 7 7 6 4 4 3 1 4 8 8 9 6
7 6 6 10 14 11 2 9 5 3 2 3 4 2 6 10 13 13 16 18 17 16 14 12 10 11 12 12 11 10 10 9 8 6 5 4 4 2 2 4 8 9 10 8
6 7 9 2 1 2 6 2 1 3 4 9 11 8 8 10 13 14 17 16 15 15 13 11 11 14 11 11 8 10 9 8 6 5 5 4 4 2 3 6 8 8 8 6
10 7 7 6 8 8 7 6 4 6 7 13 13 9 10 11 12 11 13 13 12 14 14 10 12 11 12 10 12 11 8 5 4 6 5 6 7 7 5 7 6 6 6 3
3 3 11 9 5 7 6 5 6 8 13 12 12 12 12 11 11 11 11 12 12 14 13 12 12 12 13 13 12 11 9 7 5 5 7 7 6 5 5 4 5 6 5 3
4 11 6 5 2 4 6 5 9 9 8 12 12 11 13 12 12 11 11 11 11 12 12 13 13 13 13 13 13 11 10 8 8 7 9 7 6 4 6 3 6 5 2 2
5 4 10 4 4 3 5 6 12 14 10 11 9 11 12 10 10 11 11 11 10 9 11 12 13 14 14 14 14 12 10 8 7 6 7 7 7 6 12 12 14 13 10 5
6 6 5 5 5 5 6 8 14 13 13 14 11 11 11 11 9 12 10 9 6 7 7 10 10 8 5 11 12 11 8 7 8 8 7 7 6 6 6 5 10 9 9 8
5 5 3 4 2 4 7 7 17 13 13 13 11 10 10 10 12 10 9 8 10 11 11 11 12 9 5 9 10 9 7 9 7 6 6 6 5 6 5 6 4 1 6 7
6 6 2 1 6 6 6 11 12 13 13 11 11 11 11 11 10 9 11 11 12 12 11 12 13 7 4 11 13 11 10 6 6 4 4 4 3 3 4 5 6 4 2 4
6 6 3 6 6 6 7 8 11 10 10 12 11 11 9 9 8 11 11 12 13 10 10 12 11 6 7 10 10 8 8 10 7 5 3 3 3 4 4 5 7 4 2 1
6 5 5 5 7 5 4 6 10 10 11 12 12 12 12 10 10 11 9 8 10 10 10 11 10 5 8 7 9 6 5 6 6 4 4 4 4 4 4 5 6 4 2 1
7 4 5 8 8 6 5 7 9 9 10 11 11 11 10 11 10 10 9 11 11 10 8 9 8 8 6 6 7 5 5 4 6 5 4 4 4 4 4 4 5 5 1 2
6 7 8 8 8 8 7 7 7 7 9 9 11 9 9 10 11 11 12 11 11 10 7 7 11 7 5 5 10 6 5 6 6 5 4 5 5 5 4 4 4 4 4 4
9 9 10 8 9 10 9 7 9 9 8 11 12 12 12 12 13 12 11 9 8 5 9 9 9 8 5 6 9 6 7 7 7 5 3 5 5 4 3 4 4 4 4 3
8 8 9 10 9 9 8 5 10 8 6 11 13 12 12 11 11 12 11 8 7 12 11 10 7 4 3 4 6 5 6 6 6 5 5 4 5 5 4 3 4 4 4 3
5 7 6 8 9 9 7 6 8 7 8 8 9 11 12 10 10 8 5 8 7 13 9 7 6 8 5 6 6 6 6 6 5 4 4 4 4 4 4 4 4 3 3 3
7 6 7 7 8 9 8 6 4 7 7 8 9 10 10 8 8 8 6 8 8 9 8 4 10 10 8 5 5 6 6 6 5 4 4 4 4 4 4 4 3 4 4 3
8 8 5 7 8 7 8 6 7 6 6 6 6 6 9 7 5 3 8 11 13 12 5 8 11 12 8 6 6 6 5 4 5 5 4 6 4 5 4 3 3 3 3 3
7 6 6 7 7 5 8 7 7 8 8 7 7 6 7 5 5 6 8 8 12 9 8 10 12 11 7 6 6 5 4 4 4 5 4 5 4 4 4 4 3 4 3 3
8 7 6 7 5 6 6 6 5 6 6 6 5 5 3 3 5 8 7 9 8 9 7 6 6 6 6 6 6 5 5 4 5 5 4 4 4 4 4 4 4 3 3 3
6 7 5 3 6 6 7 6 6 6 6 7 6 6 6 5 7 8 9 8 8 7 6 5 5 6 6 6 5 5 5 4 4 4 4 4 4 4 4 4 4 3 3 3
Wind_Direction
359 21 48 51 280 301 210 210 192 257 275 269 284 176 179 171 168 185 179 177 172 160 148 145 142 138 144 148 144 115 106 90 88 78 68 66 67 64 61 51 45 62 51 39
328 321 38 342 297 273 288 278 241 246 261 239 270 271 200 199 190 192 180 181 173 155 148 147 142 138 147 156 117 111 104 94 84 77 69 68 71 69 68 58 56 53 56 38
289 338 344 240 223 252 240 242 246 237 245 247 251 252 234 219 179 172 180 175 170 152 148 144 145 139 144 129 116 115 108 102 96 94 83 72 79 81 77 71 67 59 52 40
294 359 279 298 282 253 249 248 248 246 276 301 287 215 11 69 169 174 166 161 148 145 139 133 130 130 125 117 106 101 94 96 101 107 100 85 78 93 91 86 83 74 58 40
183 250 306 300 273 260 246 261 198 280 291 253 265 140 12 336 154 163 154 129 133 134 129 124 124 130 120 114 111 106 100 96 95 104 100 95 84 79 92 101 83 73 74 54
152 194 280 272 318 317 34 277 235 240 264 335 359 12 251 4 105 103 113 128 130 129 127 124 139 140 126 127 123 121 124 124 120 113 115 116 130 118 115 107 106 90 73 52
228 230 266 246 255 282 202 255 283 111 96 44 102 230 100 85 75 97 115 123 122 124 125 126 114 106 116 122 122 134 145 143 135 130 131 136 128 105 99 93 118 100 82 57
224 220 248 349 78 215 216 320 3 42 104 95 114 108 99 101 104 113 121 123 122 122 128 132 125 121 126 126 121 113 119 130 141 145 136 137 127 88 80 90 92 98 90 67
184 208 230 207 197 213 192 174 190 120 120 133 136 135 129 122 122 121 125 127 127 129 130 126 131 137 127 130 126 126 124 122 129 141 116 86 81 63 60 66 89 88 88 75
34 250 246 262 297 239 159 147 140 137 143 144 141 145 140 137 136 134 136 135 138 137 139 145 149 140 134 138 137 139 146 152 134 110 104 88 83 77 74 73 79 95 88 80
264 311 317 344 51 33 337 101 82 95 127 137 142 146 147 147 146 145 141 144 149 151 156 158 157 149 153 151 151 156 162 150 128 114 108 106 91 92 90 71 100 103 113 134
228 264 250 244 339 63 163 130 130 128 128 138 146 145 146 148 146 146 147 150 157 164 160 164 151 153 160 165 169 159 148 147 143 130 128 123 127 117 109 106 98 95 105 109
206 200 160 236 234 238 156 177 145 138 137 138 145 146 147 145 149 149 146 153 150 144 115 104 104 90 126 154 143 145 146 149 149 149 144 147 144 142 137 116 112 107 79 76
192 150 190 205 217 25 126 120 135 130 133 136 140 144 143 145 148 147 151 127 117 110 104 106 96 79 64 98 102 109 108 99 105 114 120 134 157 163 156 156 138 327 75 64
164 147 118 38 103 74 93 108 119 129 131 134 137 145 147 151 149 138 121 121 115 111 110 108 100 91 80 104 108 112 110 105 104 103 110 127 119 111 141 152 151 121 15 11
146 114 163 116 115 99 106 109 121 133 137 135 142 143 141 132 120 121 126 132 131 130 125 111 112 135 114 107 108 108 111 122 120 127 125 109 113 105 93 97 114 122 92 55
124 138 132 139 130 122 126 123 141 143 135 142 147 145 147 140 127 131 127 114 117 120 125 127 136 132 114 108 117 119 115 140 146 126 124 114 111 112 111 101 121 118 135 197
83 106 154 140 134 127 108 116 121 129 140 144 140 143 142 144 138 128 118 113 111 106 115 129 135 128 122 116 129 125 126 120 120 114 100 104 110 103 108 105 118 141 149 86
108 105 97 108 120 117 112 104 100 111 118 123 134 130 125 120 121 119 123 124 125 128 140 136 145 128 140 182 149 146 144 127 116 114 118 110 97 95 94 106 111 107 125 109
57 71 83 80 84 104 97 89 102 98 108 109 109 113 117 126 128 131 135 137 145 135 147 152 150 153 135 113 126 129 130 126 130 136 137 124 124 121 115 111 114 118 115 119
77 78 89 93 90 91 94 104 115 111 113 127 130 135 135 135 136 137 138 140 140 148 154 157 159 141 119 113 125 122 118 116 123 131 127 135 141 151 154 152 128 124 116 116
109 97 94 98 104 100 101 95 102 106 109 110 116 126 131 135 141 141 135 140 148 154 156 168 154 142 137 124 123 126 130 135 142 146 148 155 147 143 142 129 127 126 124 120
134 131 113 115 117 120 118 111 104 125 125 133 139 145 149 150 152 153 140 150 148 156 162 160 142 141 137 121 123 123 128 136 142 141 132 123 124 132 131 127 131 125 123 120
141 144 117 111 116 121 128 131 128 121 113 120 125 136 142 143 145 148 130 144 150 159 140 143 143 140 128 127 128 130 131 129 129 125 126 120 118 120 130 132 121 137 138 135
145 137 128 134 144 141 131 135 132 129 135 134 146 145 155 163 155 140 140 148 152 135 143 149 145 138 135 135 135 137 136 141 136 138 141 141 149 142 147 145 140 136 139 155
154 158 158 170 161 143 139 148 145 148 148 146 156 154 145 140 130 140 144 150 139 133 138 145 146 132 136 137 141 138 129 133 144 155 151 143 147 145 136 141 147 163 174 151
165 163 175 160 142 151 152 163 156 164 158 158 159 162 160 155 143 146 147 145 140 135 135 145 147 139 137 139 139 128 135 133 131 132 136 142 145 145 150 155 165 162 150 153